User: anonymous   Login
Location: Caltech
(34.1382°N, 118.1253°W)
Time: 23:48:27
(UTC-07:00)
Language:

Cosmos 44 Rocket - Orbit

View from above orbital plane
View from above orbital plane
View from above satellite
View from above satellite

Ground track
Ground track

The orbit data is extracted from the following two-line orbital elements,

1   877U 64053B   15244.89139311 -.00000032 +00000-0 +18400-4 0  9994
2   877 065.0782 043.9824 0066542 352.9625 007.0532 14.59149243706054
Epoch (UTC): 01 September 2015 21:23:36
Eccentricity: 0.0066542
inclination: 65.0782°
perigee height: 649 km
apogee height: 743 km
right ascension of ascending node: 43.9824°
argument of perigee: 352.9625°
revolutions per day: 14.59149243
mean anomaly at epoch: 7.0532°
orbit number at epoch: 70605

The dashed part of the orbit path shows where the satellite is in the earth's shadow,  

DLR